Airfield :
LOGIN :

Register | Disclaimer

   EN    FR    IT 

 










Legend :    VFR   Marginal VFR   IFR   Intensive IFR   Very Intensive IFR
Visi :
Ceiling :
>= 8 km
>= 3000ft
5 to 8 km
1000 to 3000 ft
1500m to 5 km
500 to 1000 ft
800 to 1500m
200 to 500 ft
< 800m
< 200 ft
Symbols :   Thunderstorms  Fog  Heavy snow  Heavy precipitations  Wind > 20 kt
SIGMETs :     Misc.  Thunderstorms  Icing  Turbulence  Mountain Waves  Volcanic Ashes







- Airport Elevation : 9 ft
- IATA code : MIR


DTMB - Habib Bourguliba Int. Monastir

CURRENT METAR :
  • 162200Z 17004KT CAVOK 20/16 ?1926 NOSIG

EXPIRED METARs :
  • 162130Z 16003KT CAVOK 20/16 Q1026 NOSIG
  • 162100Z 14003KT CAVOK 20/17 Q1026 NOSIG
  • 162030Z 13005KT CAVOK 21/17 Q1026 NOSIG
  • 162000Z 14005KT CAVOK 21/17 Q1026 NOSIG
  • 161930Z 13005KT CAVOK 22/17 Q1026 NOSIG

TAF TAF DTMB
Valid from the 16 at 18:00 until the 17 at 18:00 UTC


161700Z 1618/1718 10010KT CAVOK
BECMG 1619/1621 18010KT
PROB30 1700/1705 3000 BR
No reported NOTAMs for that airfield.



MET'MAP, your aeronautical weather chart ! - Copyright ORBIFLY December 2007 - Disclaimer

ORBIFLY MET'MAP TEAM :

Programming & Development : Alexandra Zaïnal
Concept & Development : Baudouin d'Aumeries
Co-Development & Prog : Marc-Olivier Méhu
Technical & hardware support : Manuel Goepfert

Contact : metmap@orbifly.com




SOURCES & CREDITS :

   NOAA